Location: Solstice Park, West Seattle
(47.5363°N, 122.3905°W)
Time: 09:26:56
(UTC-07:00)

ISS - Pass Details

Date: 17 May 2021
Orbit: 417 x 422 km, 51.6° (Epoch: 18 June)

Event Time Altitude Azimuth Distance (km) Brightness Sun altitude
Rises 00:45:48 0° 284° (WNW) 2,369 0.3 -22.9°
Reaches altitude 10° 00:47:59 10° 293° (WNW) 1,506 -0.6 -22.9°
Maximum altitude 00:51:12 40° 4° (N) 639 -2.4 -23.0°
Enters shadow 00:53:54 14° 73° (ENE) 1,308 -1.1 -23.0°
